"Pseudo-MPEC" for P11JIcy

Created 2023 Oct 6 19:22:21 UT using Find_Orb

Click here for an explanation of pseudo-MPECs

 
 Astrometry: 
     P11JIcy* C2023 09 16Bw5,AstrometryHBPhOBB'bg^2pFH`qCJw)sredacted;5(o2=1rF51
     P11JIcy  C2023 09 16fSH.KQPmXlZpX*=k5xh9Oq2dy'P=mH]JclickkL!us3A.^S8UY]jF51
     P11JIcy  C2023 09 161K)aBo%vPVmCXPhereDfor]uJexplanation^JCLE+0xxeW[/CalF51

Station data:
(F51) Pan-STARRS 1, Haleakala  (N20.707234 W156.255910)  US/Hawaii.
   Observers J. Bulger, T. Lowe, A. Schultz, M. Willman. Measurers K.
   Chambers, S. Chastel, T. de Boer, L. Denneau, J. Fairlamb, H. Flewelling,
   M. Huber, C.-C. Lin, E. Magnier, Y. Ramanjooloo, R. Wainscoat, R. Weryk.
   1.8-m Ritchey-Chrétien + CCD.

Orbital elements:  P11JIcy
   Perihelion 2023 Oct 29.27052 +/- 49.6 TT =  6:29:33 (JD 2460246.77052)
Epoch 2023 Sep 16.0 TT = JDT 2460203.5   Earth MOID: 0.3539   Ma: 0.0627
M 349.55089279 +/- 17               (J2000 ecliptic)             AutoNEOCP
n   0.24148325 +/- 0.238            Peri.   77.44692 +/- 90
a   2.55394397 +/- 1.68             Node   306.33817 +/- 47
e   0.4750777 +/- 0.248             Incl.    4.34733 +/- 3.4
P   4.08                   H 23.01  G  0.15   U 11.8  SR
q 1.34062211 +/- 0.411    Q 3.76726583 +/- 86.3
From 3 observations 2023 Sept. 16 (39.4 min); mean residual 0".03
Residuals in arcseconds: 
230916 F51  .02+  .03-    230916 F51  .03-  .05+    230916 F51  .02+  .03-    

Ephemerides (geocentric):
Date (UTC) HH   RA             Dec           delta  r     elong  mag " sig PA
---- --------  ------------   ------------  ------ ------ -----  --- --------
2023 10 06 19  23 00 38.580   +08 02 29.10  .39072 1.3601 153.3 22.6  52d  93
2023 10 06 20  23 00 39.389   +08 02 46.04  .39073 1.3601 153.2 22.6  52d  92
2023 10 06 21  23 00 40.203   +08 03 02.98  .39075 1.3600 153.2 22.6  52d  92
2023 10 06 22  23 00 41.021   +08 03 19.91  .39076 1.3599 153.2 22.6  52d  92
2023 10 06 23  23 00 41.844   +08 03 36.83  .39078 1.3599 153.1 22.6  52d  92
2023 10 07 00  23 00 42.673   +08 03 53.74  .39079 1.3598 153.1 22.6  52d  92
2023 10 07 01  23 00 43.505   +08 04 10.64  .39081 1.3597 153.1 22.6  52d  92
2023 10 07 02  23 00 44.343   +08 04 27.54  .39082 1.3596 153.1 22.6  52d  92
2023 10 07 03  23 00 45.186   +08 04 44.43  .39084 1.3596 153.0 22.6  52d  92
2023 10 07 04  23 00 46.034   +08 05 01.31  .39085 1.3595 153.0 22.6  52d  92
2023 10 07 05  23 00 46.886   +08 05 18.18  .39087 1.3594 153.0 22.6  52d  92
2023 10 07 06  23 00 47.743   +08 05 35.05  .39088 1.3594 152.9 22.6  52d  92
2023 10 07 07  23 00 48.605   +08 05 51.91  .39090 1.3593 152.9 22.6  52d  92
2023 10 07 08  23 00 49.472   +08 06 08.76  .39092 1.3592 152.9 22.6  52d  92
2023 10 07 09  23 00 50.344   +08 06 25.60  .39093 1.3592 152.8 22.6  52d  92
2023 10 07 10  23 00 51.221   +08 06 42.43  .39095 1.3591 152.8 22.6  52d  92
2023 10 07 11  23 00 52.103   +08 06 59.26  .39097 1.3590 152.8 22.6  52d  92
2023 10 07 12  23 00 52.989   +08 07 16.08  .39099 1.3589 152.7 22.6  52d  92
2023 10 07 13  23 00 53.881   +08 07 32.89  .39100 1.3589 152.7 22.6  52d  92
2023 10 07 14  23 00 54.777   +08 07 49.69  .39102 1.3588 152.7 22.6  52d  92
2023 10 07 15  23 00 55.679   +08 08 06.49  .39104 1.3587 152.6 22.6  52d  92
2023 10 07 16  23 00 56.585   +08 08 23.28  .39106 1.3587 152.6 22.6  52d  92
2023 10 07 17  23 00 57.496   +08 08 40.06  .39107 1.3586 152.6 22.6  52d  92
2023 10 07 18  23 00 58.412   +08 08 56.84  .39109 1.3585 152.5 22.6  52d  92
2023 10 07 19  23 00 59.333   +08 09 13.60  .39111 1.3585 152.5 22.6  52d  92
2023 10 07 20  23 01 00.259   +08 09 30.36  .39113 1.3584 152.5 22.6  52d  92
2023 10 07 21  23 01 01.190   +08 09 47.11  .39115 1.3583 152.4 22.6  52d  92
2023 10 07 22  23 01 02.126   +08 10 03.86  .39117 1.3583 152.4 22.6  52d  92
2023 10 07 23  23 01 03.067   +08 10 20.59  .39119 1.3582 152.4 22.6  52d  92
2023 10 08 00  23 01 04.013   +08 10 37.32  .39121 1.3581 152.3 22.6  52d  92
2023 10 08 01  23 01 04.963   +08 10 54.05  .39123 1.3581 152.3 22.6  52d  92
2023 10 08 02  23 01 05.919   +08 11 10.76  .39125 1.3580 152.3 22.6  52d  92
2023 10 08 03  23 01 06.880   +08 11 27.47  .39127 1.3579 152.2 22.6  52d  92
2023 10 08 04  23 01 07.845   +08 11 44.17  .39129 1.3579 152.2 22.6  52d  92
2023 10 08 05  23 01 08.816   +08 12 00.86  .39131 1.3578 152.2 22.6  52d  92
2023 10 08 06  23 01 09.791   +08 12 17.55  .39133 1.3577 152.2 22.6  52d  92
2023 10 08 07  23 01 10.772   +08 12 34.23  .39135 1.3577 152.1 22.6  52d  92
2023 10 08 08  23 01 11.757   +08 12 50.90  .39137 1.3576 152.1 22.6  52d  92
2023 10 08 09  23 01 12.748   +08 13 07.56  .39139 1.3575 152.1 22.6  52d  91
2023 10 08 10  23 01 13.744   +08 13 24.22  .39142 1.3575 152.0 22.6  52d  91
2023 10 08 11  23 01 14.744   +08 13 40.87  .39144 1.3574 152.0 22.6  52d  91
2023 10 08 12  23 01 15.750   +08 13 57.51  .39146 1.3573 152.0 22.6  52d  91
2023 10 08 13  23 01 16.760   +08 14 14.15  .39148 1.3573 151.9 22.6  52d  91
2023 10 08 14  23 01 17.776   +08 14 30.78  .39151 1.3572 151.9 22.6  52d  91
2023 10 08 15  23 01 18.796   +08 14 47.40  .39153 1.3571 151.9 22.6  52d  91
2023 10 08 16  23 01 19.822   +08 15 04.02  .39155 1.3571 151.8 22.6  52d  91
2023 10 08 17  23 01 20.853   +08 15 20.63  .39157 1.3570 151.8 22.6  52d  91
2023 10 08 18  23 01 21.888   +08 15 37.23  .39160 1.3569 151.8 22.6  52d  91